Time,TemperatureF,DewpointF,PressureIn,WindDirection,WindDirectionDegrees,WindSpeedMPH,WindSpeedGustMPH,Humidity,HourlyPrecipIn,Conditions,Clouds,dailyrainin,SoftwareType,DateUTC
2013-02-23 00:00:00,43.0,-99.9,29.80,North,10,4.0,7.0,-999,-99.99,,,-99.99,,2013-02-23 08:00:00,
2013-02-23 00:53:00,43.0,-99.9,29.80,North,10,4.0,7.0,-999,-99.99,,,-99.99,,2013-02-23 08:53:00,
2013-02-23 01:00:00,43.0,-99.9,29.82,NNW,340,2.0,2.0,-999,-99.99,,,-99.99,,2013-02-23 09:00:00,
2013-02-23 01:52:00,43.0,-99.9,29.82,NNW,340,2.0,2.0,-999,-99.99,,,-99.99,,2013-02-23 09:52:00,
2013-02-23 02:00:00,43.0,-99.9,29.84,ENE,70,7.0,9.0,-999,-99.99,,,-99.99,,2013-02-23 10:00:00,
2013-02-23 02:52:00,43.0,-99.9,29.84,ENE,70,7.0,9.0,-999,-99.99,,,-99.99,,2013-02-23 10:52:00,
2013-02-23 03:00:00,43.0,-99.9,29.87,East,100,7.0,9.0,-999,-99.99,,,-99.99,,2013-02-23 11:00:00,
2013-02-23 03:53:00,43.0,-99.9,29.87,East,100,7.0,9.0,-999,-99.99,,,-99.99,,2013-02-23 11:53:00,
2013-02-23 04:00:00,42.0,-99.9,29.90,East,90,7.0,9.0,-999,-99.99,,,-99.99,,2013-02-23 12:00:00,
2013-02-23 04:53:00,42.0,-99.9,29.90,East,90,7.0,9.0,-999,-99.99,,,-99.99,,2013-02-23 12:53:00,
2013-02-23 05:00:00,43.0,-99.9,29.94,WNW,300,4.0,7.0,-999,-99.99,,,-99.99,,2013-02-23 13:00:00,
2013-02-23 05:52:00,43.0,-99.9,29.94,WNW,300,4.0,7.0,-999,-99.99,,,-99.99,,2013-02-23 13:52:00,
2013-02-23 06:00:00,42.0,-99.9,29.98,NNW,340,7.0,11.0,-999,-99.99,,,-99.99,,2013-02-23 14:00:00,
2013-02-23 06:52:00,42.0,-99.9,29.98,NNW,340,7.0,11.0,-999,-99.99,,,-99.99,,2013-02-23 14:52:00,
2013-02-23 07:00:00,43.0,-99.9,30.01,NW,320,16.0,18.0,-999,-99.99,,,-99.99,,2013-02-23 15:00:00,
2013-02-23 07:52:00,43.0,-99.9,30.01,NW,320,16.0,18.0,-999,-99.99,,,-99.99,,2013-02-23 15:52:00,
2013-02-23 08:00:00,44.0,-99.9,30.04,WNW,290,18.0,22.0,-999,-99.99,,,-99.99,,2013-02-23 16:00:00,
2013-02-23 08:52:00,44.0,-99.9,30.04,WNW,290,18.0,22.0,-999,-99.99,,,-99.99,,2013-02-23 16:52:00,
2013-02-23 09:00:00,44.0,-99.9,30.08,WNW,300,25.0,29.0,-999,-99.99,,,-99.99,,2013-02-23 17:00:00,
2013-02-23 09:52:00,44.0,-99.9,30.08,WNW,300,25.0,29.0,-999,-99.99,,,-99.99,,2013-02-23 17:52:00,
2013-02-23 10:00:00,44.0,-99.9,30.11,WNW,300,22.0,25.0,-999,-99.99,,,-99.99,,2013-02-23 18:00:00,
2013-02-23 10:52:00,44.0,-99.9,30.11,WNW,300,22.0,25.0,-999,-99.99,,,-99.99,,2013-02-23 18:52:00,
2013-02-23 11:00:00,44.0,-99.9,30.14,WNW,300,20.0,25.0,-999,-99.99,,,-99.99,,2013-02-23 19:00:00,
2013-02-23 11:52:00,44.0,-99.9,30.14,WNW,300,20.0,25.0,-999,-99.99,,,-99.99,,2013-02-23 19:52:00,
2013-02-23 12:00:00,44.0,-99.9,30.16,West,280,16.0,20.0,-999,-99.99,,,-99.99,,2013-02-23 20:00:00,
2013-02-23 12:53:00,44.0,-99.9,30.16,West,280,16.0,20.0,-999,-99.99,,,-99.99,,2013-02-23 20:53:00,
2013-02-23 13:00:00,45.0,-99.9,30.17,West,280,18.0,22.0,-999,-99.99,,,-99.99,,2013-02-23 21:00:00,
2013-02-23 13:52:00,45.0,-99.9,30.17,West,280,18.0,22.0,-999,-99.99,,,-99.99,,2013-02-23 21:52:00,
2013-02-23 14:00:00,45.0,-99.9,30.19,West,280,18.0,22.0,-999,-99.99,,,-99.99,,2013-02-23 22:00:00,
2013-02-23 14:52:00,45.0,-99.9,30.19,West,280,18.0,22.0,-999,-99.99,,,-99.99,,2013-02-23 22:52:00,
2013-02-23 15:00:00,46.0,-99.9,30.20,WNW,300,18.0,20.0,-999,-99.99,,,-99.99,,2013-02-23 23:00:00,
2013-02-23 15:52:00,46.0,-99.9,30.20,WNW,300,18.0,20.0,-999,-99.99,,,-99.99,,2013-02-23 23:52:00,
2013-02-23 16:00:00,46.0,-99.9,30.20,WNW,300,18.0,20.0,-999,-99.99,,,-99.99,,2013-02-24 00:00:00,
2013-02-23 16:52:00,46.0,-99.9,30.20,WNW,300,18.0,20.0,-999,-99.99,,,-99.99,,2013-02-24 00:52:00,
2013-02-23 17:00:00,46.0,-99.9,30.23,WNW,290,13.0,16.0,-999,-99.99,,,-99.99,,2013-02-24 01:00:00,
2013-02-23 17:52:00,46.0,-99.9,30.23,WNW,290,13.0,16.0,-999,-99.99,,,-99.99,,2013-02-24 01:52:00,
2013-02-23 18:00:00,46.0,-99.9,30.25,West,270,9.0,11.0,-999,-99.99,,,-99.99,,2013-02-24 02:00:00,
2013-02-23 18:52:00,46.0,-99.9,30.25,West,270,9.0,11.0,-999,-99.99,,,-99.99,,2013-02-24 02:52:00,
2013-02-23 19:00:00,46.0,-99.9,30.27,WSW,250,11.0,13.0,-999,-99.99,,,-99.99,,2013-02-24 03:00:00,
2013-02-23 19:52:00,46.0,-99.9,30.27,WSW,250,11.0,13.0,-999,-99.99,,,-99.99,,2013-02-24 03:52:00,
2013-02-23 20:00:00,46.0,-99.9,30.28,WSW,250,7.0,9.0,-999,-99.99,,,-99.99,,2013-02-24 04:00:00,
2013-02-23 20:52:00,46.0,-99.9,30.28,WSW,250,7.0,9.0,-999,-99.99,,,-99.99,,2013-02-24 04:52:00,
2013-02-23 21:00:00,46.0,-99.9,30.30,WSW,240,4.0,7.0,-999,-99.99,,,-99.99,,2013-02-24 05:00:00,
2013-02-23 21:52:00,46.0,-99.9,30.30,WSW,240,4.0,7.0,-999,-99.99,,,-99.99,,2013-02-24 05:52:00,
2013-02-23 22:00:00,45.0,-99.9,30.31,West,270,4.0,7.0,-999,-99.99,,,-99.99,,2013-02-24 06:00:00,
2013-02-23 22:52:00,45.0,-99.9,30.31,West,270,4.0,7.0,-999,-99.99,,,-99.99,,2013-02-24 06:52:00,
2013-02-23 23:00:00,45.0,-99.9,30.31,West,260,4.0,4.0,-999,-99.99,,,-99.99,,2013-02-24 07:00:00,
2013-02-23 23:52:00,45.0,-99.9,30.31,West,260,4.0,4.0,-999,-99.99,,,-99.99,,2013-02-24 07:52:00,